Radiation Dose at Monitoring Post of Fukushima Daini Nuclear Power Station
Date,Time,MP-1(microSv/h),MP-2(microSv/h),MP-3(microSv/h),MP-4(microSv/h),MP-5(microSv/h),MP-6(microSv/h),MP-7(microSv/h),Wind Direction,Wind Velocity(m/s),Rain
2016/10/24,00:00,0.418,0.249,0.431,0.394,0.370,0.202,0.175,north-northwest,0.7,No
2016/10/24,00:10,0.418,0.250,0.431,0.395,0.369,0.202,0.175,northwest,1.4,No
2016/10/24,00:20,0.416,0.251,0.429,0.393,0.369,0.202,0.174,north-northwest,3.2,No
2016/10/24,00:30,0.417,0.251,0.432,0.395,0.370,0.201,0.175,north-northwest,4.8,No
2016/10/24,00:40,0.419,0.250,0.430,0.395,0.370,0.202,0.175,north-northwest,6.2,No
2016/10/24,00:50,0.417,0.250,0.431,0.392,0.369,0.202,0.175,north,6.4,No
2016/10/24,01:00,0.418,0.250,0.433,0.395,0.370,0.202,0.174,north,5.3,No
2016/10/24,01:10,0.420,0.249,0.430,0.394,0.370,0.202,0.174,north,2.8,No
2016/10/24,01:20,0.418,0.251,0.432,0.393,0.369,0.203,0.175,north,2.9,No
2016/10/24,01:30,0.418,0.251,0.430,0.394,0.371,0.202,0.175,north,3.1,No
2016/10/24,01:40,0.417,0.250,0.431,0.396,0.369,0.202,0.175,north,3.1,No
2016/10/24,01:50,0.416,0.250,0.433,0.393,0.370,0.202,0.174,north,4.2,No
2016/10/24,02:00,0.419,0.250,0.433,0.396,0.371,0.203,0.175,north,2.8,No
2016/10/24,02:10,0.419,0.250,0.431,0.396,0.369,0.203,0.176,north,3.9,No
2016/10/24,02:20,0.418,0.250,0.430,0.394,0.370,0.202,0.176,north,3.1,No
2016/10/24,02:30,0.419,0.250,0.431,0.397,0.372,0.203,0.175,north-northwest,2.7,No
2016/10/24,02:40,0.416,0.250,0.430,0.393,0.371,0.203,0.175,north-northwest,3.6,No
2016/10/24,02:50,0.417,0.250,0.432,0.394,0.370,0.203,0.175,north-northwest,4.4,No
2016/10/24,03:00,0.417,0.250,0.433,0.398,0.369,0.202,0.174,north-northwest,4.9,No
2016/10/24,03:10,0.419,0.249,0.430,0.395,0.371,0.203,0.175,north,8.5,No
2016/10/24,03:20,0.417,0.250,0.431,0.395,0.372,0.203,0.175,north,8.6,No
2016/10/24,03:30,0.421,0.250,0.431,0.395,0.370,0.203,0.175,north,7.5,No
2016/10/24,03:40,0.418,0.249,0.430,0.395,0.371,0.203,0.175,north-northwest,5.3,No
2016/10/24,03:50,0.418,0.249,0.429,0.394,0.371,0.203,0.174,north-northwest,6.4,No
2016/10/24,04:00,0.419,0.249,0.433,0.396,0.370,0.203,0.175,north,5.8,No
2016/10/24,04:10,0.417,0.251,0.431,0.394,0.369,0.202,0.175,north,4.8,No
2016/10/24,04:20,0.418,0.250,0.432,0.394,0.370,0.204,0.175,north,5.3,No
2016/10/24,04:30,0.418,0.249,0.431,0.396,0.372,0.203,0.175,north,4.2,No
2016/10/24,04:40,0.416,0.248,0.433,0.395,0.370,0.203,0.175,north,2.2,No
2016/10/24,04:50,0.417,0.250,0.432,0.394,0.370,0.203,0.175,north,0.9,No
2016/10/24,05:00,0.418,0.250,0.432,0.395,0.370,0.203,0.174,north-northwest,2.6,No
2016/10/24,05:10,0.419,0.250,0.433,0.395,0.369,0.203,0.176,north-northwest,4.2,No
2016/10/24,05:20,0.418,0.250,0.431,0.395,0.370,0.203,0.174,north-northwest,3.5,No
2016/10/24,05:30,0.417,0.249,0.431,0.395,0.371,0.202,0.175,north-northwest,5.0,No
2016/10/24,05:40,0.420,0.249,0.432,0.395,0.370,0.203,0.175,north-northwest,5.4,No
2016/10/24,05:50,0.418,0.249,0.430,0.391,0.369,0.203,0.175,north-northwest,5.1,No
2016/10/24,06:00,0.417,0.250,0.432,0.394,0.370,0.203,0.175,north-northwest,5.2,No
2016/10/24,06:10,0.419,0.249,0.430,0.396,0.370,0.203,0.175,north-northwest,4.5,No
2016/10/24,06:20,0.419,0.249,0.432,0.395,0.370,0.202,0.174,north-northwest,3.0,No
2016/10/24,06:30,0.418,0.251,0.431,0.393,0.369,0.202,0.174,north-northwest,4.8,No
2016/10/24,06:40,0.419,0.250,0.432,0.394,0.371,0.203,0.175,north-northwest,4.1,No
2016/10/24,06:50,0.418,0.249,0.433,0.393,0.369,0.203,0.175,north-northwest,5.5,No
2016/10/24,07:00,0.416,0.250,0.429,0.394,0.371,0.202,0.173,north-northwest,6.0,No
2016/10/24,07:10,0.417,0.250,0.431,0.394,0.371,0.202,0.174,north-northwest,5.5,No
2016/10/24,07:20,0.419,0.250,0.432,0.394,0.370,0.202,0.175,north-northwest,5.2,No
2016/10/24,07:30,0.416,0.249,0.430,0.392,0.367,0.202,0.173,north-northwest,1.8,No
2016/10/24,07:40,0.416,0.250,0.430,0.394,0.370,0.202,0.173,north-northwest,2.5,No
2016/10/24,07:50,0.418,0.250,0.433,0.393,0.368,0.202,0.173,northwest,3.4,No
2016/10/24,08:00,0.417,0.249,0.430,0.393,0.367,0.203,0.175,north-northwest,3.6,No
2016/10/24,08:10,0.417,0.250,0.432,0.392,0.370,0.202,0.173,northwest,3.5,No
2016/10/24,08:20,0.420,0.250,0.432,0.392,0.368,0.202,0.175,northwest,3.6,No
2016/10/24,08:30,0.415,0.249,0.429,0.393,0.367,0.203,0.174,north-northwest,3.4,No
2016/10/24,08:40,0.416,0.250,0.433,0.392,0.369,0.203,0.172,northwest,2.8,No
2016/10/24,08:50,0.417,0.248,0.430,0.393,0.370,0.203,0.174,north-northwest,4.2,No
2016/10/24,09:00,0.417,0.250,0.430,0.391,0.370,0.202,0.173,west-northwest,4.5,No
2016/10/24,09:10,0.416,0.249,0.430,0.392,0.370,0.203,0.175,west-northwest,5.7,No
2016/10/24,09:20,0.414,0.249,0.429,0.394,0.367,0.202,0.174,northwest,4.0,No
2016/10/24,09:30,0.416,0.249,0.430,0.390,0.370,0.203,0.173,west,4.6,No
2016/10/24,09:40,0.415,0.249,0.431,0.392,0.367,0.201,0.175,west-northwest,2.5,No
2016/10/24,09:50,0.413,0.249,0.430,0.389,0.370,0.202,0.173,west-northwest,4.1,No
2016/10/24,10:00,0.416,0.249,0.432,0.392,0.367,0.201,0.173,north-northwest,4.5,No
2016/10/24,10:10,0.411,0.249,0.429,0.393,0.368,0.203,0.175,west-northwest,4.6,No
2016/10/24,10:20,0.416,0.250,0.431,0.390,0.368,0.203,0.175,west,4.4,No
2016/10/24,10:30,0.414,0.249,0.431,0.394,0.365,0.202,0.173,west-northwest,4.1,No
2016/10/24,10:40,0.416,0.249,0.430,0.394,0.369,0.203,0.174,north-northwest,4.6,No
2016/10/24,10:50,0.416,0.249,0.432,0.389,0.369,0.202,0.173,north-northwest,3.9,No
2016/10/24,11:00,0.414,0.249,0.429,0.391,0.366,0.203,0.174,north-northwest,4.5,No
2016/10/24,11:10,0.414,0.249,0.429,0.395,0.370,0.203,0.174,north-northwest,4.7,No
2016/10/24,11:20,0.418,0.249,0.430,0.393,0.367,0.204,0.173,north-northwest,5.6,No
2016/10/24,11:30,0.414,0.251,0.431,0.390,0.368,0.202,0.174,north-northwest,5.7,No
2016/10/24,11:40,0.419,0.250,0.429,0.392,0.370,0.202,0.175,north-northwest,3.8,No
2016/10/24,11:50,0.417,0.249,0.430,0.395,0.367,0.202,0.174,northwest,3.0,No
2016/10/24,12:00,0.417,0.250,0.430,0.392,0.368,0.203,0.174,northwest,1.8,No
2016/10/24,12:10,0.418,0.249,0.427,0.389,0.371,0.202,0.174,north-northwest,2.6,No
2016/10/24,12:20,0.415,0.249,0.428,0.390,0.366,0.203,0.174,north-northwest,1.1,No
2016/10/24,12:30,0.417,0.251,0.431,0.395,0.366,0.204,0.174,north-northwest,2.7,No
2016/10/24,12:40,0.416,0.249,0.428,0.393,0.370,0.203,0.176,north-northwest,2.1,No
2016/10/24,12:50,0.418,0.250,0.425,0.391,0.369,0.203,0.175,north-northwest,3.3,No
2016/10/24,13:00,0.416,0.250,0.431,0.391,0.366,0.204,0.174,northwest,5.8,No
2016/10/24,13:10,0.418,0.248,0.429,0.396,0.370,0.203,0.175,northwest,4.2,No
2016/10/24,13:20,0.417,0.250,0.426,0.393,0.368,0.203,0.173,northwest,4.9,No
2016/10/24,13:30,0.417,0.250,0.432,0.391,0.368,0.202,0.174,northwest,5.5,No
2016/10/24,13:40,0.419,0.249,0.430,0.394,0.371,0.203,0.174,northwest,3.0,No
2016/10/24,13:50,0.416,0.251,0.430,0.394,0.367,0.202,0.174,northwest,4.4,No
2016/10/24,14:00,0.418,0.249,0.432,0.394,0.372,0.204,0.176,west-northwest,4.3,No
2016/10/24,14:10,0.417,0.252,0.428,0.396,0.370,0.203,0.174,west-northwest,2.8,No
2016/10/24,14:20,0.418,0.251,0.430,0.393,0.369,0.202,0.176,northwest,1.6,No
2016/10/24,14:30,0.417,0.249,0.432,0.396,0.370,0.203,0.174,northwest,2.2,No
2016/10/24,14:40,0.420,0.251,0.431,0.393,0.369,0.203,0.175,west-northwest,2.7,No
2016/10/24,14:50,0.418,0.251,0.431,0.396,0.371,0.203,0.175,northwest,2.2,No
2016/10/24,15:00,0.418,0.250,0.431,0.392,0.370,0.203,0.175,north-northwest,3.7,No
2016/10/24,15:10,0.417,0.251,0.430,0.396,0.372,0.203,0.175,north-northwest,2.8,No
2016/10/24,15:20,0.418,0.251,0.430,0.393,0.369,0.202,0.175,north,3.6,Yes
2016/10/24,15:30,0.417,0.250,0.431,0.396,0.372,0.202,0.174,north-northwest,1.3,No
2016/10/24,15:40,0.418,0.250,0.432,0.394,0.369,0.202,0.175,north-northwest,1.5,No
2016/10/24,15:50,0.417,0.252,0.429,0.395,0.371,0.202,0.173,north-northwest,1.1,No
2016/10/24,16:00,0.416,0.251,0.430,0.394,0.369,0.202,0.175,north-northwest,2.8,No
2016/10/24,16:10,0.419,0.252,0.432,0.395,0.373,0.203,0.176,north-northwest,2.7,No
2016/10/24,16:20,0.417,0.250,0.430,0.394,0.368,0.203,0.175,west-northwest,2.0,No
2016/10/24,16:30,0.420,0.251,0.433,0.392,0.372,0.203,0.175,west-northwest,0.9,No
2016/10/24,16:40,0.415,0.251,0.430,0.396,0.370,0.203,0.176,west-northwest,2.2,No
2016/10/24,16:50,0.418,0.251,0.433,0.394,0.370,0.204,0.175,west,3.4,No
2016/10/24,17:00,0.417,0.252,0.430,0.396,0.369,0.202,0.174,west,4.4,No
2016/10/24,17:10,0.417,0.250,0.432,0.396,0.369,0.203,0.174,west,5.3,No
2016/10/24,17:20,0.419,0.250,0.431,0.394,0.371,0.203,0.175,west-northwest,4.8,No
2016/10/24,17:30,0.416,0.253,0.430,0.397,0.370,0.202,0.174,west-northwest,3.6,No
2016/10/24,17:40,0.419,0.251,0.433,0.395,0.370,0.203,0.175,west-northwest,3.1,No
2016/10/24,17:50,0.419,0.251,0.431,0.397,0.371,0.203,0.175,west-northwest,3.9,No
2016/10/24,18:00,0.417,0.251,0.431,0.394,0.370,0.204,0.174,west-northwest,3.6,No
2016/10/24,18:10,0.420,0.251,0.433,0.397,0.369,0.203,0.175,west-northwest,4.0,No
2016/10/24,18:20,0.417,0.251,0.430,0.395,0.372,0.204,0.176,west-northwest,4.0,No
2016/10/24,18:30,0.416,0.251,0.435,0.393,0.371,0.203,0.176,west-northwest,2.8,No
2016/10/24,18:40,0.419,0.250,0.431,0.396,0.370,0.203,0.176,west-northwest,3.4,No
2016/10/24,18:50,0.418,0.250,0.430,0.395,0.371,0.204,0.175,west-northwest,4.1,No
2016/10/24,19:00,0.419,0.251,0.435,0.396,0.370,0.203,0.176,west-northwest,4.3,No
2016/10/24,19:10,0.417,0.249,0.431,0.395,0.370,0.203,0.175,west,4.2,No
2016/10/24,19:20,0.417,0.250,0.430,0.394,0.370,0.203,0.176,west,5.6,No
2016/10/24,19:30,0.419,0.250,0.435,0.395,0.371,0.205,0.175,west,8.0,No
2016/10/24,19:40,0.417,0.251,0.431,0.395,0.372,0.203,0.175,west,7.3,No
2016/10/24,19:50,0.420,0.251,0.431,0.396,0.370,0.204,0.175,west,8.9,No
2016/10/24,20:00,0.420,0.250,0.431,0.396,0.369,0.204,0.175,west,9.0,No
2016/10/24,20:10,0.418,0.251,0.431,0.395,0.372,0.204,0.175,west,8.7,No
2016/10/24,20:20,0.417,0.251,0.434,0.396,0.369,0.204,0.176,west,8.5,No
2016/10/24,20:30,0.419,0.251,0.433,0.395,0.369,0.203,0.175,west,7.6,No
2016/10/24,20:40,0.416,0.251,0.432,0.394,0.373,0.203,0.175,west,7.0,No
2016/10/24,20:50,0.419,0.252,0.434,0.396,0.370,0.203,0.175,west-southwest,6.9,No
2016/10/24,21:00,0.418,0.251,0.432,0.393,0.371,0.204,0.176,west-southwest,7.8,No
2016/10/24,21:10,0.417,0.250,0.432,0.395,0.370,0.203,0.175,west,7.8,No
2016/10/24,21:20,0.419,0.251,0.433,0.396,0.369,0.203,0.175,west,8.6,No
2016/10/24,21:30,0.419,0.250,0.431,0.395,0.371,0.203,0.175,west,8.1,No
2016/10/24,21:40,0.417,0.250,0.432,0.395,0.370,0.204,0.175,west,7.8,No
2016/10/24,21:50,0.418,0.252,0.430,0.394,0.370,0.203,0.174,west,7.6,No
2016/10/24,22:00,0.417,0.252,0.433,0.393,0.369,0.203,0.176,west,7.5,No
2016/10/24,22:10,0.418,0.250,0.433,0.396,0.371,0.204,0.175,west,7.3,No
2016/10/24,22:20,0.417,0.251,0.434,0.396,0.371,0.203,0.176,west,5.2,No
2016/10/24,22:30,0.417,0.251,0.433,0.396,0.371,0.204,0.175,west,4.7,No
2016/10/24,22:40,0.417,0.252,0.433,0.394,0.370,0.203,0.176,west,4.6,No
2016/10/24,22:50,0.419,0.251,0.435,0.395,0.369,0.204,0.175,west,5.0,No
2016/10/24,23:00,0.419,0.251,0.433,0.397,0.372,0.203,0.175,west,4.7,No
2016/10/24,23:10,0.419,0.251,0.432,0.396,0.369,0.203,0.175,west,6.2,No
2016/10/24,23:20,0.418,0.251,0.434,0.394,0.370,0.204,0.174,west,7.3,No
2016/10/24,23:30,0.419,0.251,0.432,0.396,0.369,0.203,0.175,west,7.6,No
2016/10/24,23:40,0.418,0.250,0.432,0.394,0.370,0.203,0.176,west,7.6,No
2016/10/24,23:50,0.417,0.251,0.434,0.396,0.369,0.203,0.175,west,7.5,No
